Home > Time Zones > World Clock > Weather > U.S.A. > Hilo > Past weeks

Flag for U.S.A. Weather past 2 weeks in Hilo, Hawaii, U.S.A.

Now
76 °F

Overcast.


Feels Like: 77 °F
Forecast: 70 / 81 °F
Wind: 6 mph from Southwest

Location: Hilo International Airport

Current Time: Oct 22, 2014 at 11:42:20 PM

Latest Report: Oct 22, 2014 at 10:53 PM


Visibility: 10 mi

Pressure: 30.02 "Hg

Humidity: 77%

Dew point: 68 °F

Location of HiloLocation

Historic Weather in Hilo — Graph

°F

Hilo temperature yesterday

Maximum temperature yesterday: 87 °F (at 11:53 AM)
Minimum temperature yesterday: 69 °F (at 1:53 AM)
Average temperature yesterday: 77 °F

Past Weeks' High & Low Weather Summary

 TemperatureHumidityPressure
High87 °F (Oct 21, 11:53 AM)100% (Oct 9, 2:29 AM)30.07 "Hg (Oct 9, 2:29 AM)
Low66 °F (Oct 13, 9:53 PM)57% (Oct 22, 9:53 AM)29.88 "Hg (Oct 16, 2:53 PM)
Average76 °F83%29.98 "Hg
* Reported Oct 7 10:23 PM — Oct 22 10:53 PM, Hilo, Weather by CustomWeather, © 2014

Note: Actual official high and low records may vary slightly from our data, if they occured in-between our weather recording intervals... More about our weather records

Advertising

Hilo weather history for previous 24 hours

 ConditionsComfort  
Time TempWeatherWind HumidityBarometerVisibility
10:53 PM
Oct 22
76 °FOvercast.6 mph77%30.02 "Hg10 mi
9:53 PM76 °FOvercast.6 mph77%30.03 "Hg10 mi
8:53 PM75 °FOvercast.6 mph79%30.03 "Hg10 mi
7:53 PM76 °FOvercast.6 mph77%30.03 "Hg10 mi
6:53 PM76 °FOvercast.9 mph80%30.02 "Hg10 mi
5:53 PM76 °FOvercast.7 mph82%30.00 "Hg10 mi
4:53 PM76 °FOvercast.5 mph85%29.98 "Hg10 mi
3:53 PM76 °FCloudy.14 mph85%29.98 "Hg10 mi
3:21 PM77 °FMore clouds than sun.15 mph83%29.98 "Hg10 mi
2:53 PM78 °FOvercast.16 mph79%29.97 "Hg10 mi
2:04 PM79 °FLight rain. Mostly cloudy.14 mph84%29.97 "Hg10 mi
1:53 PM80 °FCloudy.16 mph79%29.97 "Hg10 mi
12:53 PM84 °FPartly sunny.15 mph65%29.99 "Hg10 mi
12:16 PM84 °FBroken clouds.13 mph70%30.00 "Hg10 mi
11:53 AM84 °FPassing clouds.13 mph70%30.00 "Hg10 mi
10:53 AM86 °FSunny.10 mph57%30.02 "Hg10 mi
9:53 AM85 °FSunny.6 mph57%30.03 "Hg10 mi
8:53 AM82 °FSunny.7 mph70%30.02 "Hg10 mi
7:53 AM77 °FPassing clouds.5 mph69%30.01 "Hg10 mi
6:53 AM72 °FPassing clouds.6 mph73%30.01 "Hg10 mi
5:53 AM71 °FPassing clouds.7 mph78%29.99 "Hg10 mi
4:53 AM71 °FPassing clouds.5 mph78%29.98 "Hg10 mi
3:53 AM71 °FPassing clouds.No wind81%29.97 "Hg10 mi
2:53 AM73 °FPassing clouds.No wind81%29.97 "Hg10 mi
1:53 AM72 °FMostly cloudy.5 mph84%29.98 "Hg10 mi
12:53 AM71 °FPassing clouds.No wind78%30.00 "Hg10 mi
11:53 PM
Oct 21
72 °FClear.5 mph76%30.00 "Hg10 mi
Weather by CustomWeather, © 2014

See weather overviewHow to use our weather pages